Hourly Data Report for October 11, 2016

All times are specified in Local Standard Time (LST). Add 1 hour to adjust for Daylight Saving Time where and when it is observed.

CLYDE RIVER A
NUNAVUT

70°29'09.000" N
68°31'01.000" W
26.50 m
2400804
71090
YCY

Download Data

Hourly Data (October 2016)
Hourly Data Report for October 11, 2016
Temp Definition
°C
Dew Point Temp Definition
°C
Rel Hum Definition
%
Wind Dir Definition
10's deg

Wind Spd Definition
km/h
Visibility Definition
km
Stn Press Definition
kPa
Hmdx Definition


Wind Chill Definition


Weather Definition


TIME
00:00 Legend Double Dagger -5.5 -10.1 70 23 26 16.1 100.57   -13 LegendNANA
01:00 Legend Double Dagger -5.7 -11.3 65 24 30 16.1 100.62   -14 LegendNANA
02:00 Legend Double Dagger -6.5 -12.4 63 23 18 16.1 100.67   -13 LegendNANA
03:00 Legend Double Dagger -6.0 -9.8 75 22 48 16.1 100.67   -16 LegendNANA
04:00 Legend Double Dagger -6.5 -10.8 72 23 26 16.1 100.78   -14 LegendNANA
05:00 Legend Double Dagger -6.5 -11.1 70 21 26 16.1 100.84   -14 LegendNANA
06:00 Legend Double Dagger -6.8 -11.7 69 19 13 16.1 100.87   -12 LegendNANA
07:00 Legend Double Dagger -6.6 -12.1 65 24 18 16.1 100.83   -13 LegendNANA
08:00 Legend Double Dagger -5.3 -12.0 60 14 11 16.1 100.83   -10 LegendNANA
09:00 Legend Double Dagger -4.7 -10.1 66 15 17 16.1 100.83   -11 LegendNANA
10:00 Legend Double Dagger -4.6 -9.5 69 14 13 16.1 100.77   -10 LegendNANA
11:00 Legend Double Dagger -4.4 -7.7 78 15 9 16.1 100.74   -8 LegendNANA
12:00 Legend Double Dagger -3.1 -7.6 71 17 26 16.1 100.66   -10 LegendNANA
13:00 Legend Double Dagger -2.8 -7.4 71 18 28 16.1 100.65   -10 LegendNANA
14:00 Legend Double Dagger -3.2 -8.5 67 20 22 16.1 100.66   -10 LegendNANA
15:00 Legend Double Dagger -3.8 -7.7 75 23 22 16.1 100.69   -10 LegendNANA
16:00 Legend Double Dagger -4.3 -9.0 70 28 9 16.1 100.72   -8 LegendNANA
17:00 Legend Double Dagger -4.1 -9.6 66 24 26 16.1 100.72   -11 LegendNANA
18:00 Legend Double Dagger -4.9 -9.6 70 23 18 16.1 100.75   -11 LegendNANA
19:00 Legend Double Dagger -5.2 -10.8 65 28 13 16.1 100.76   -10 LegendNANA
20:00 Legend Double Dagger -7.3 -12.9 65 23 13 16.1 100.75   -13 LegendNANA
21:00 Legend Double Dagger -7.3 -14.0 59 23 22 16.1 100.71   -15 LegendNANA
22:00 Legend Double Dagger -5.9 -13.1 57 22 26 16.1 100.69   -14 LegendNANA
23:00 Legend Double Dagger -6.2 -15.2 50 24 21 16.1 100.71   -13 LegendNANA

Notes on Data Quality.

Legend

  • E = Estimated
  • M = Missing
  • NA = Not Available
  • ‡ = Partner data that is not subject to review by the National Climate Archives
Date modified: